Regional Weather Roundup
Issued by NWS

Home | Current Version | Previous Version | Text Only | Print | Product List | Glossary Off
Versions: 1 2 3 4 5 6 7 8 9 10 11 12 13 14 15 16 17 18 19 20 21 22 23 24 25 26 27 28 29 30 31 32 33 34 35 36 37 38 39 40 41 42 43 44 45 46 47 48 49 50

000
ASUS43 KDTX 230910
RWRMI
MICHIGAN HOURLY REGIONAL WEATHER ROUNDUP
NATIONAL WEATHER SERVICE DETROIT/PONTIAC MI
ISSUED BY NATIONAL WEATHER SERVICE GRAND RAPIDS MI
400 AM EST THU FEB 23 2017

NOTE: "FAIR" INDICATES FEW OR NO CLOUDS BELOW 12,000 FEET WITH NO
SIGNIFICANT WEATHER AND/OR OBSTRUCTION TO VISIBILITY.

MIZ047>049-052>055-059>063-066>070-074>076-081>083-231000-
SOUTHEAST LOWER MICHIGAN

CITY           SKY/WX    TMP DP  RH WIND       PRES   REMARKS
ADRIAN         PTCLDY    56  54  93 SW15G22   29.66F
ALMA           CLOUDY    57  53  84 SW14G21   29.57S
ANN ARBOR      CLOUDY    54  54 100 S6        29.64S FOG
BAD AXE        CLOUDY    54  51  90 S7        29.55F
DETROIT CITY   MOCLDY    55  54  96 SW12      29.64F FOG
DETROIT        CLOUDY    58  55  90 SW18      29.65F FOG
FLINT          MOCLDY    56  52  86 SW9       29.59F
GROSSE ILE     FOG       46  45  98 S10       29.65S VSB 1/2
HILLSDALE      PTCLDY    54  52  94 SW13      29.64F
HOWELL         CLOUDY    57  52  84 SW8       29.61S

CITY           SKY/WX    TMP DP  RH WIND       PRES   REMARKS
JACKSON        CLOUDY    58  52  80 SW17      29.63S
LANSING        PTCLDY    57  51  80 SW15      29.60S
MASON          CLOUDY    59  54  83 SW9G21    29.62R
MONROE         MOCLDY    59  55  88 SW14G21   29.65S
MT. CLEMENS    MOCLDY    56  56 100 SW12      29.61F
PONTIAC        MOCLDY    56  52  86 SW13      29.61F FOG
PORT HOPE        N/A     54  51  90 VRB6      29.52F
PORT HURON     CLOUDY    54  54 100 S14G21    29.62F FOG
TRI CITIES     CLOUDY    58  54  86 SW18      29.55S
YPSILANTI      PTCLDY    57  55  93 SW14      29.64F FOG
$$
MIZ043>046-050>051-056>058-064>065-071>073-077>080-231000-
SOUTHWEST LOWER MICHIGAN

CITY           SKY/WX    TMP DP  RH WIND       PRES   REMARKS
BATTLE CREEK   CLOUDY    57  53  86 SW16      29.63S
BENTON HARBOR  PTCLDY    54  50  86 W15G24    29.65S
BIG RAPIDS     CLOUDY    53  49  86 W15G23    29.55R
COLDWATER      CLOUDY    58  54  87 SW13G21   29.65S
HOLLAND        PTCLDY    52  48  86 W20       29.64R
GRAND RAPIDS   CLEAR     55  50  83 W20G28    29.60R
KALAMAZOO      CLOUDY    58  51  78 W13       29.64S
MARSHALL       CLOUDY    58  54  88 SW15      29.62S
MOUNT PLEASANT CLOUDY    58  51  79 SW13G21   29.55R
MUSKEGON       CLEAR     49  46  90 SW14      29.62R
STURGIS        CLOUDY    55  53  91 SW12      29.65S
$$
MIZ016>042-231000-
NORTHERN LOWER MICHIGAN

CITY           SKY/WX    TMP DP  RH WIND       PRES   REMARKS
ALPENA         CLOUDY    45  45 100 CALM      29.49F FOG
BEAVER ISLAND  LGT RAIN  36  36 100 NW7       29.55R WCI  30
BELLAIRE       CLOUDY    45  44  98 W7        29.53R FOG
CADILLAC       CLOUDY    52  49  90 W10G17    29.53R
CHARLEVOIX     FOG       36  36 100 NW8       29.57R VSB 3/4 WCI  30
GAYLORD        FOG       48  44  86 W7        29.49S VSB 1/2
HOUGHTON LAKE  CLOUDY    52  49  89 SW10      29.51S
MANISTEE       LGT RAIN  40  39  97 W9        29.58R VSB 1/4 WCI  34
OSCODA         MOCLDY    52  50  93 SW13G22   29.49F FOG
PELLSTON       LGT RAIN  41  39  93 NW7       29.51S FOG
TRAVERSE CITY  CLOUDY    45  43  93 W14       29.54R FOG
LUDINGTON      FOG       37  37 100 NW7G18    29.59R VSB 1/4 WCI  32
$$
MIZ007>008-015-231000-
EASTERN UPPER MICHIGAN

CITY           SKY/WX    TMP DP  RH WIND       PRES   REMARKS
KINROSS        FOG       37  37 100 NW8       29.53R VSB 1/4 WCI  31
MACKINAC ISLAN MIX PCPN  36  36 100 N7        29.51R VSB 3/4 WCI  30
NEWBERRY       CLOUDY    34  34 100 NW6       29.54S WCI  29
S. S. MARIE    FOG       38  37  97 W6        29.53R VSB 1/2 WCI  33
$$
MIZ004>006-011>014-085-231000-
CENTRAL UPPER MICHIGAN

CITY           SKY/WX    TMP DP  RH WIND       PRES   REMARKS
MANISTIQUE     CLOUDY    36  35  97 N13G18    29.56R WCI  27
ESCANABA       CLOUDY    36  33  89 N13G20    29.62R WCI  27
MENOMINEE      MOCLDY    39  34  82 N10G20    29.64R WCI  32
SAWYER-GWINN   LGT SNOW  32  31  96 N16G23    29.64S VSB 1   WCI  21
$$
MIZ001>003-009>011-084-231000-
WESTERN UPPER MICHIGAN

CITY           SKY/WX    TMP DP  RH WIND       PRES   REMARKS
IRON MOUNTAIN  FLURRIES  34  30  85 N13       29.65R WCI  25
HOUGHTON       CLOUDY    31  26  82 N9        29.74R WCI  23
COPPER HARBOR    N/A     34  29  82 NE18G25   29.72R WCI  23
IRONWOOD       MIX PCPN  31  30  96 N3        29.79R
$$

ABBREVIATIONS USED IN REMARKS
   TC - TEMPERATURE IN CELSIUS
  WCI - WIND CHILL INDEX
   HX - HEAT INDEX
  VSB - VISIBILITY





USA.gov is the U.S. government's official web portal to all federal, state and local government web resources and services.